Wetbulb
33.65 33.85 34.28 34.87 35.24 35.26 35.24 35.72 36.35 36.45 36.13 35.41 35.09 34.91 34.87 34.84 34.92 35.60 36.19 36.46 36.09 35.80 35.70 35.73 36.03 35.58 34.91 34.26 34.26 34.18 34.11 34.21 34.34 35.36 36.18 35.84 34.88 34.45 34.48 34.43 34.40 34.55 34.63 34.72 34.68 34.88 35.09 35.31 35.94 37.23 38.50 38.97 38.76 38.04 37.13 36.42 35.69 35.65 36.03 36.41 36.81 37.00 37.06 36.93 36.47 36.28 36.38 36.44 36.76
33.40 33.45 33.89 34.94 35.00 34.81 34.63 34.92 35.39 35.48 35.44 35.17 34.87 34.42 34.17 34.23 34.54 34.90 35.19 35.16 35.33 35.07 35.01 35.35 35.26 34.59 33.85 33.67 33.94 34.03 33.95 33.78 33.86 34.39 34.77 34.93 34.44 34.15 34.02 34.03 34.10 34.29 34.51 34.29 34.33 34.59 34.76 34.49 35.35 36.62 37.84 38.38 37.81 37.16 36.48 35.96 35.35 35.26 35.30 35.57 36.31 36.82 36.97 36.82 36.42 36.36 36.30 36.36 36.20
32.98 33.08 33.38 33.92 33.74 33.78 33.82 33.86 33.71 33.47 33.34 33.82 34.24 34.21 34.13 34.05 34.33 34.55 34.65 34.52 34.12 34.11 34.33 34.84 34.37 33.85 33.47 33.07 33.27 33.49 33.64 33.67 33.64 33.66 33.71 34.04 34.25 34.28 34.00 33.64 33.85 34.30 34.66 34.42 33.95 33.97 34.23 33.96 35.08 36.53 37.62 37.71 36.53 35.96 35.81 35.53 35.49 35.24 35.01 35.16 36.20 36.94 37.33 37.55 36.61 36.28 36.41 36.55 35.63
33.07 32.76 32.81 33.11 33.07 32.86 32.79 33.34 32.88 32.65 32.94 33.76 33.77 33.82 33.87 33.97 34.25 34.23 33.91 33.47 33.27 33.62 34.20 34.81 33.38 33.09 33.21 33.33 33.21 33.19 33.61 34.48 34.39 33.87 33.38 33.73 34.13 34.26 34.11 33.74 33.78 33.83 33.96 34.25 33.77 33.46 33.33 33.45 34.88 35.94 36.24 35.28 34.74 34.71 34.92 35.35 34.94 34.80 34.94 35.29 36.12 36.52 36.71 37.06 36.61 36.58 36.66 36.22 35.19
33.76 33.25 33.00 32.91 32.67 32.52 32.49 32.58 32.34 32.48 32.79 33.39 33.38 33.44 33.47 33.73 33.69 33.42 33.27 33.43 33.67 34.32 34.87 34.72 33.04 33.01 33.48 33.70 34.00 33.84 33.55 33.47 34.84 34.29 33.27 33.27 33.89 34.28 34.40 34.31 33.76 33.56 33.76 34.51 34.34 33.79 33.26 33.24 34.52 35.01 34.84 34.22 34.59 34.61 34.38 33.95 33.78 33.93 34.47 35.57 36.00 36.30 36.37 36.27 36.38 36.30 36.06 35.73 35.01
34.42 34.49 34.22 33.80 33.27 32.73 32.30 32.16 32.25 32.32 32.45 32.51 32.25 32.05 32.27 33.06 33.08 32.85 32.90 33.09 33.80 34.40 34.68 34.57 34.53 35.05 35.37 34.55 33.86 33.21 32.59 32.09 32.58 32.63 32.45 32.40 34.06 35.43 36.27 36.00 33.78 32.76 32.72 33.07 34.17 33.97 33.29 32.58 34.15 34.61 34.48 34.44 33.89 33.66 33.59 33.45 33.37 33.33 33.60 34.41 35.20 35.58 35.63 35.24 35.53 35.49 35.12 34.50 34.14
34.67 34.86 34.82 35.01 34.80 33.49 32.41 32.78 32.99 32.79 32.34 31.98 31.51 31.33 31.52 31.92 31.90 31.88 32.11 32.50 33.19 33.89 34.62 35.88 35.49 34.66 33.89 33.45 33.74 33.40 32.72 32.11 32.10 31.92 31.93 32.45 34.10 35.35 35.72 34.92 33.81 33.11 32.65 32.14 32.78 32.90 32.62 32.13 33.61 34.42 34.77 35.00 34.55 33.73 33.00 33.15 33.71 33.62 33.23 33.27 34.38 34.83 34.68 33.95 34.80 35.39 35.60 35.29 35.42
34.77 34.85 34.80 34.91 34.92 34.14 33.54 34.04 33.49 32.57 31.77 31.57 31.32 31.35 31.41 31.40 31.25 31.41 31.61 31.94 31.96 32.92 34.20 35.60 34.63 33.47 32.33 31.65 33.67 34.09 33.78 33.51 33.10 32.52 32.32 33.03 33.69 34.72 35.50 34.98 35.15 34.66 33.72 32.78 32.19 31.75 31.92 33.29 34.88 35.05 34.34 33.65 33.89 33.71 33.47 33.45 34.69 34.65 33.96 33.48 34.07 34.23 34.16 34.22 34.99 36.30 37.33 37.39 37.12
34.39 34.90 34.92 34.92 34.73 34.20 33.92 34.13 33.21 32.04 31.14 31.14 31.34 31.68 31.88 31.43 31.09 30.98 31.02 31.31 31.92 32.32 32.76 33.43 34.11 34.08 33.77 33.40 33.93 34.07 34.00 34.20 34.02 33.81 33.92 34.31 34.64 35.04 35.25 35.34 34.97 34.74 34.66 34.26 32.63 31.61 31.73 33.49 34.86 35.08 34.74 34.29 34.00 34.22 34.47 34.67 35.13 35.17 34.92 34.74 34.24 34.60 35.29 35.52 36.35 37.14 37.71 37.90 37.55
34.05 34.51 34.58 34.39 34.01 33.89 33.73 33.69 32.46 31.51 30.93 30.89 31.46 32.03 32.64 33.19 32.07 31.18 30.91 31.50 31.97 31.55 31.09 31.12 32.74 33.78 34.37 34.33 34.11 33.94 34.00 34.12 34.29 34.39 34.32 34.25 34.59 35.11 35.43 35.25 34.88 34.59 34.48 34.39 33.58 32.71 32.41 32.76 33.15 34.14 34.80 34.45 34.28 34.58 35.00 35.35 35.13 35.11 35.11 35.16 35.36 35.61 35.75 35.51 36.89 37.55 37.76 37.81 37.58
33.74 34.37 34.36 33.95 33.67 33.67 33.35 31.88 31.04 30.97 31.00 30.86 30.92 31.17 31.64 32.23 31.54 31.30 31.41 31.68 30.77 30.12 29.86 30.19 31.96 33.45 34.26 34.21 34.00 33.91 33.99 34.14 34.23 34.37 34.30 34.29 34.70 35.13 35.51 35.34 34.97 34.67 34.54 34.52 34.29 34.06 33.85 33.78 33.87 34.15 34.37 34.21 34.26 34.38 34.72 35.25 35.10 34.96 35.10 35.54 35.75 35.70 35.81 36.43 37.18 37.61 37.73 37.65 37.37
33.41 34.27 34.36 34.11 33.84 33.30 32.39 30.93 31.01 31.72 32.05 31.36 30.52 30.19 30.22 30.31 30.57 31.27 31.51 30.91 30.19 29.79 29.83 30.64 32.58 33.59 33.94 33.81 33.74 33.76 33.76 33.90 34.06 34.14 34.16 34.26 34.70 35.12 35.52 35.55 35.14 34.83 34.49 34.40 34.34 34.30 34.29 34.23 34.18 34.05 33.83 33.82 34.14 34.37 34.71 35.13 35.05 35.10 35.19 35.70 35.25 34.96 35.17 36.23 37.29 37.36 37.08 36.93 36.98
33.36 33.91 34.11 34.03 33.74 33.10 32.29 31.63 32.50 32.78 32.24 30.66 29.81 29.61 29.82 30.37 31.02 31.17 30.84 29.90 29.95 30.15 30.77 32.45 33.59 33.58 33.25 33.41 33.59 33.63 33.67 33.61 33.69 33.80 33.94 34.00 34.44 34.93 35.30 35.51 35.21 34.92 34.63 34.43 34.31 34.25 34.26 34.19 34.17 33.80 33.57 33.59 34.00 34.58 35.01 35.01 35.07 35.15 35.24 35.63 35.05 35.30 35.76 36.53 37.07 36.99 36.83 36.77 36.37
33.14 33.32 33.48 33.57 32.99 32.56 32.39 32.36 32.90 32.43 31.16 29.56 29.34 29.51 29.85 30.16 30.91 30.79 30.08 28.98 28.91 29.85 31.42 33.36 33.57 33.63 33.58 33.69 33.67 33.67 33.59 33.40 33.41 33.51 33.67 33.88 33.77 34.15 34.66 35.06 34.95 34.74 34.52 34.29 34.19 34.12 34.15 34.12 34.10 33.82 33.62 33.54 34.00 34.43 34.76 34.92 35.05 35.07 35.11 35.16 35.27 35.85 36.58 37.03 37.20 37.16 36.88 36.39 35.69
32.96 32.99 32.89 32.89 32.58 32.47 32.47 32.48 32.11 31.01 29.78 29.09 29.11 29.19 29.43 29.37 30.19 30.30 29.90 29.37 28.51 29.07 30.59 32.63 33.02 33.29 33.56 33.90 33.81 33.67 33.67 33.74 33.27 32.99 33.04 33.65 33.45 33.70 34.16 34.59 34.56 34.47 34.37 34.18 34.03 34.06 33.96 33.93 33.85 33.85 33.72 33.54 33.80 34.17 34.58 34.81 34.91 35.02 35.09 35.12 35.72 36.30 36.75 37.07 37.30 37.01 36.54 35.81 35.12
32.73 32.79 32.47 32.24 32.22 32.25 32.20 32.00 31.16 30.05 29.10 28.64 28.64 28.66 28.67 28.47 29.08 29.52 30.12 31.47 30.18 30.33 31.15 32.14 32.60 33.01 33.22 33.43 33.52 33.69 33.88 33.92 33.27 32.76 32.65 33.14 33.52 33.74 33.97 34.07 33.97 33.97 33.97 33.88 33.70 33.74 33.91 34.03 33.82 33.69 33.47 33.48 33.71 34.06 34.38 34.73 34.94 35.33 35.65 36.13 36.53 36.84 37.07 37.09 36.88 36.58 36.15 35.63 35.13
32.63 32.64 32.27 31.93 31.89 31.93 31.89 31.51 30.27 29.43 28.77 28.10 28.15 28.17 28.10 28.11 28.40 29.56 31.06 32.77 32.34 32.07 31.96 32.07 32.59 32.70 32.67 32.59 32.52 33.10 33.70 33.63 33.59 33.30 33.10 33.21 33.07 33.11 33.25 33.51 33.21 33.44 33.65 33.65 33.30 33.30 33.52 33.81 33.82 33.74 33.65 33.63 33.84 34.15 34.46 34.85 35.16 35.56 36.01 36.44 36.89 37.11 37.13 36.87 36.65 36.37 36.06 35.87 35.57
31.76 32.32 32.32 31.91 31.73 31.87 31.89 31.83 31.19 29.97 28.67 27.73 27.77 27.98 28.30 28.75 29.89 31.17 32.07 32.30 32.27 32.07 31.98 32.02 32.47 32.62 32.58 32.27 32.16 32.33 32.47 31.80 32.59 32.72 32.59 32.80 32.27 32.18 32.49 32.98 33.07 33.44 33.56 33.34 32.89 32.87 33.17 33.62 33.74 33.78 33.81 33.88 34.18 34.45 34.84 35.11 35.50 35.87 36.37 36.89 37.11 37.07 36.91 36.73 36.64 36.40 36.19 36.08 36.01
29.36 30.86 31.96 32.09 31.91 31.96 32.03 32.22 32.20 31.46 30.50 29.74 30.01 30.21 30.61 31.02 31.72 32.02 31.96 31.56 31.42 31.44 31.58 31.72 31.50 31.91 32.36 32.20 32.51 32.62 32.52 31.80 32.14 32.20 32.02 31.74 31.28 31.80 32.53 32.94 33.26 33.51 33.61 33.30 33.07 33.10 33.35 33.66 33.65 33.70 33.74 33.92 34.22 34.57 34.98 35.46 35.86 36.35 36.85 37.25 37.25 36.95 36.65 36.49 36.52 36.54 36.20 34.83 35.45
27.70 28.70 30.06 31.55 31.91 32.00 32.14 32.21 32.02 32.02 32.02 31.98 32.09 31.96 31.82 31.92 31.78 31.58 31.42 31.35 31.36 31.54 31.40 30.64 30.74 30.52 30.57 31.22 32.11 32.81 33.05 32.78 32.35 31.84 31.49 31.49 31.53 32.13 32.87 33.03 33.21 33.43 33.61 33.51 33.38 33.45 33.54 33.63 33.61 33.65 33.69 33.93 34.15 34.62 35.07 35.56 36.05 36.62 37.03 37.29 36.99 36.79 36.52 36.11 36.71 36.75 36.20 34.76 35.00
27.25 27.48 28.10 29.23 29.77 30.26 30.86 31.73 31.83 31.90 32.00 32.00 31.91 31.74 31.56 31.65 31.41 31.17 31.04 31.29 31.67 31.54 31.11 30.54 29.88 29.16 29.07 30.08 31.50 32.32 32.63 32.76 32.63 32.02 31.41 31.41 32.06 32.69 33.13 33.19 33.09 33.21 33.41 33.54 33.53 33.62 33.59 33.59 33.65 33.65 33.81 34.06 34.32 34.71 35.16 35.82 36.21 36.48 36.62 36.56 36.43 36.30 36.12 36.35 36.39 35.85 35.20 35.07 34.63
27.13 27.27 27.58 27.93 28.02 28.33 29.00 30.01 30.62 31.31 31.63 31.58 31.54 31.36 31.31 31.14 30.52 30.41 30.79 31.30 31.52 30.84 30.30 30.70 30.73 30.74 30.86 31.36 32.14 32.58 32.74 32.80 32.38 31.61 31.12 31.35 32.38 32.90 33.16 33.12 32.92 32.85 32.89 33.07 33.44 33.66 33.77 33.78 33.78 33.82 33.99 34.15 34.53 35.07 35.57 36.05 36.35 36.33 36.06 35.92 35.81 35.63 35.74 36.77 35.97 35.18 34.56 34.51 34.14
27.20 27.29 27.40 27.58 27.61 28.37 29.14 28.97 28.45 29.18 30.31 31.07 31.04 30.95 30.91 30.91 30.86 31.06 31.40 31.58 31.69 31.54 31.29 31.61 31.70 31.45 31.25 31.38 32.11 32.34 32.30 32.20 31.33 30.93 30.70 30.77 31.65 32.35 32.79 33.05 32.81 32.58 32.54 32.76 33.24 33.66 33.88 33.88 33.82 33.91 34.08 34.28 34.67 35.25 35.79 36.32 36.33 36.09 35.72 35.47 35.63 35.70 35.76 36.15 35.42 34.75 34.25 33.91 33.75
27.49 27.47 27.53 27.77 27.48 27.57 27.57 27.39 26.72 27.53 29.12 30.53 30.58 30.60 30.73 30.73 30.46 30.84 31.28 31.22 31.50 31.65 31.69 31.80 31.74 30.80 29.91 29.79 30.35 30.86 31.20 31.32 31.13 31.07 31.06 31.13 31.76 32.31 32.75 32.96 32.81 32.56 32.63 33.05 33.78 34.23 34.30 33.81 33.40 33.40 33.78 34.33 34.94 35.55 35.99 36.30 35.98 35.66 35.41 35.34 35.61 35.62 35.39 35.06 33.89 33.25 33.05 33.40 33.61
27.78 27.73 27.89 27.77 27.57 27.03 26.56 26.20 25.89 26.67 28.25 30.09 30.18 30.46 30.77 30.95 31.07 31.10 31.04 30.84 31.11 31.28 31.42 31.38 31.44 31.40 31.20 30.79 30.04 30.19 30.80 31.18 31.13 31.07 31.24 31.65 32.00 32.25 32.43 32.74 32.61 32.62 32.98 33.69 34.72 35.31 35.34 34.58 33.82 33.51 33.74 34.56 35.30 35.86 36.21 36.11 35.74 35.48 35.43 35.72 35.72 35.27 34.54 33.74 33.47 32.51 32.12 33.41 33.63
27.98 27.71 27.62 27.61 27.43 26.92 26.34 25.93 25.84 26.02 27.09 29.60 29.33 29.95 30.67 30.91 30.49 30.33 30.40 30.71 30.79 30.67 30.53 30.57 31.02 31.40 31.58 31.31 30.64 30.43 30.62 30.77 30.61 30.79 31.10 31.33 31.74 31.85 31.92 32.05 32.30 32.76 33.37 34.34 35.12 35.57 35.77 35.59 35.24 35.02 34.86 35.05 35.43 35.74 35.74 35.42 35.48 35.37 35.31 35.88 35.76 34.99 33.89 32.85 32.41 32.30 32.65 33.41 33.49
27.98 27.53 27.27 27.61 27.25 26.83 26.43 26.29 26.09 26.23 27.11 29.39 29.95 30.49 30.62 30.26 28.98 29.52 30.40 30.28 30.53 29.70 29.00 29.94 30.84 31.41 31.57 31.20 30.57 30.12 29.76 29.57 30.31 31.02 31.47 31.59 31.67 31.58 31.27 30.87 31.35 32.59 34.03 35.10 35.62 35.92 35.98 35.90 35.91 35.93 35.93 35.70 35.57 35.25 34.78 34.54 34.83 35.12 35.45 35.79 35.33 34.47 33.52 32.72 30.74 30.52 31.40 32.86 33.03
28.03 27.67 27.40 27.30 27.03 26.76 26.49 26.05 25.96 26.09 26.77 28.54 29.81 30.26 30.34 30.57 30.13 29.81 29.64 29.37 30.22 29.91 29.54 30.53 30.43 30.58 30.51 30.21 29.46 29.04 28.91 28.85 29.77 30.77 31.68 32.00 31.96 31.74 31.33 30.71 30.74 32.33 34.34 35.63 36.01 36.28 36.23 35.98 35.91 35.97 36.11 35.86 35.70 35.30 34.75 33.81 34.14 34.66 35.06 35.07 34.57 33.85 33.07 32.31 31.80 31.66 31.75 31.94 32.45
28.05 27.85 27.53 27.16 26.94 26.72 26.49 26.27 26.49 26.55 26.77 27.40 29.01 29.74 30.06 30.66 30.43 29.79 29.01 28.37 29.01 29.16 29.05 28.84 28.64 28.90 28.94 28.40 28.12 28.08 28.15 28.33 29.11 29.97 30.80 31.73 31.98 31.80 31.06 29.73 29.90 31.63 34.00 35.87 36.23 36.30 36.06 35.79 35.69 35.83 36.02 36.02 35.29 34.17 33.16 32.72 33.80 34.26 34.47 34.25 33.76 33.08 32.34 31.91 31.81 31.70 31.60 31.54 31.82
28.40 28.07 27.62 27.21 26.99 26.85 26.85 26.94 27.09 27.00 27.18 28.06 29.14 30.06 30.52 30.34 29.94 29.52 28.74 27.73 27.68 27.84 27.88 27.30 27.67 27.74 27.58 27.50 27.43 27.35 27.40 27.56 27.93 28.06 27.98 27.60 28.49 30.03 30.93 29.88 29.39 30.81 33.23 35.77 36.11 36.02 35.70 35.39 35.39 35.55 35.79 35.88 34.99 34.21 33.78 33.91 33.83 33.67 33.53 33.47 33.16 32.63 32.18 31.82 31.52 31.43 31.37 31.44 31.53
28.54 28.16 27.67 27.27 27.18 27.13 27.18 27.27 27.40 27.40 27.84 29.04 30.06 30.34 30.17 29.74 29.32 28.90 28.28 27.32 27.16 27.91 28.44 27.98 27.56 27.15 27.04 27.44 27.28 27.12 27.09 27.31 27.44 27.39 27.28 26.96 28.16 28.65 28.79 28.99 28.32 30.26 33.19 35.51 35.83 35.77 35.49 35.21 35.19 35.39 35.45 35.54 34.65 33.47 32.64 32.63 32.72 33.01 33.23 33.03 32.85 32.54 32.31 32.00 31.81 31.73 31.61 31.63 31.49
28.67 28.34 28.03 27.71 27.53 27.40 27.40 27.29 27.44 27.40 27.67 28.79 29.57 29.52 29.18 29.15 28.56 27.96 27.33 27.02 27.00 27.37 27.72 27.71 27.05 26.82 26.86 27.11 26.91 26.95 26.94 26.97 26.95 27.09 27.23 27.29 27.27 27.17 27.34 27.79 27.64 29.86 32.93 35.22 35.52 35.50 35.40 35.09 35.13 35.22 35.35 35.34 34.58 33.67 32.72 32.19 32.92 33.14 32.99 32.71 32.72 32.57 32.39 32.49 31.88 31.59 31.44 31.36 31.19
28.90 28.74 28.43 28.00 27.73 27.56 27.47 27.38 27.40 27.67 28.34 29.61 29.46 28.79 28.40 28.84 28.12 27.10 26.47 26.83 26.99 26.90 26.69 26.69 26.28 26.09 26.14 26.41 26.43 26.55 26.57 26.72 26.89 27.62 28.34 28.20 27.34 26.86 26.86 27.40 27.29 30.15 33.51 34.98 35.30 35.33 35.23 34.98 34.87 35.01 35.13 35.36 34.52 33.86 33.40 33.08 33.06 32.60 31.79 30.78 31.22 31.49 31.66 31.68 31.28 31.10 31.18 31.38 31.52
29.30 28.90 28.49 28.18 28.00 27.78 27.51 27.33 27.35 27.80 28.52 29.34 29.01 28.61 28.49 28.77 28.16 26.76 25.97 26.69 26.96 26.76 26.49 26.45 26.13 26.06 26.04 26.25 26.24 26.19 26.50 27.39 26.94 26.73 26.67 26.98 26.70 26.71 26.67 26.10 26.56 30.23 33.93 34.89 35.25 35.27 35.17 34.88 34.75 34.79 34.90 34.96 34.34 33.47 32.47 31.41 30.98 30.34 29.73 28.95 30.57 32.08 33.20 33.45 33.49 32.68 31.70 31.17 31.66
29.45 29.07 28.54 28.23 28.05 27.78 27.38 27.11 27.22 27.98 28.72 29.23 29.05 28.60 28.20 28.06 27.12 26.38 26.34 27.45 27.79 27.18 26.46 26.36 26.26 26.20 26.11 26.16 26.09 26.04 26.09 26.42 25.67 25.56 25.77 26.01 26.01 26.35 26.54 26.03 26.89 30.40 33.78 34.82 35.19 35.21 35.11 34.79 34.58 34.56 34.49 33.99 32.68 31.75 30.91 29.67 29.03 28.63 28.65 29.11 30.20 31.97 33.42 33.95 34.09 33.51 32.63 31.81 31.25
29.66 29.19 28.65 28.20 27.85 27.60 27.29 27.02 27.40 28.23 29.07 29.27 29.06 28.68 27.84 26.47 26.30 26.34 26.85 28.33 28.20 27.20 26.22 26.04 25.96 25.79 25.57 25.52 25.36 25.92 26.15 25.08 24.83 24.94 25.39 26.11 26.04 25.87 25.66 25.70 26.75 29.95 33.18 34.77 35.09 35.08 34.93 34.60 34.39 34.33 33.92 32.43 30.30 29.35 28.96 28.65 28.62 28.88 29.37 30.26 30.33 31.50 32.89 33.64 33.87 33.68 33.39 33.08 32.07
30.02 29.56 28.95 28.35 27.93 27.65 27.38 27.11 27.56 28.23 28.85 29.07 28.43 27.95 27.19 25.93 25.79 26.14 27.00 28.18 26.93 26.12 25.67 25.56 25.36 25.16 24.99 24.90 24.82 25.29 25.77 25.65 25.33 25.17 25.52 26.83 26.47 25.78 25.34 25.53 25.95 28.62 31.93 34.37 34.79 34.84 34.74 34.58 34.29 34.04 33.04 30.51 28.50 27.93 27.99 27.98 29.13 29.93 30.47 30.87 30.24 31.27 32.62 33.39 33.39 33.26 33.12 32.95 32.72
30.30 30.00 29.45 28.87 28.44 28.02 27.71 27.38 27.51 27.60 27.91 28.11 27.47 26.84 26.33 26.13 25.88 26.27 27.20 28.57 26.48 25.34 24.99 24.79 24.66 24.75 24.85 25.09 25.16 25.21 25.56 25.83 26.18 25.75 25.39 25.76 25.79 25.61 25.31 25.27 25.51 27.56 30.54 33.66 34.35 34.73 34.64 34.54 34.29 33.93 32.79 29.90 27.67 27.31 27.80 28.16 28.87 29.30 29.57 29.85 30.03 31.11 32.36 32.93 32.69 32.55 32.61 32.89 33.18
30.37 30.13 29.83 29.25 28.84 28.41 28.07 27.68 27.49 27.40 27.22 27.04 26.66 26.39 26.15 25.94 26.24 26.76 27.43 28.40 26.36 25.24 24.60 24.22 24.28 24.54 25.14 26.11 25.64 25.26 25.08 25.35 26.37 26.46 25.83 24.54 25.21 26.50 27.00 25.66 25.35 26.97 29.78 33.02 34.03 34.49 34.64 34.65 34.35 34.08 33.27 31.05 28.29 27.60 27.88 28.23 28.41 28.83 29.25 29.42 29.60 30.61 31.71 32.42 32.22 32.04 32.09 32.62 33.37
30.31 30.11 29.73 29.22 28.84 28.41 28.03 27.69 27.61 27.51 27.38 27.12 26.65 26.51 26.38 26.27 26.91 27.48 27.82 27.53 26.19 25.29 24.61 24.14 24.31 24.70 25.68 27.42 26.10 25.08 24.47 24.69 25.08 25.70 25.98 25.37 26.26 28.58 29.67 26.85 25.43 26.32 28.91 32.29 33.55 34.26 34.52 34.65 34.39 34.26 33.31 31.05 28.47 27.80 28.06 28.61 28.79 29.20 29.62 29.91 29.52 30.07 30.92 31.76 31.85 31.73 31.66 31.96 32.69
30.00 29.78 29.49 29.11 28.63 28.16 27.71 27.43 27.33 27.38 27.37 27.11 26.80 26.98 27.27 27.51 27.28 27.16 26.74 25.98 25.33 24.86 24.46 24.24 24.37 24.72 25.67 27.49 26.09 24.71 23.98 24.07 24.60 24.90 25.34 26.53 27.07 29.08 29.96 27.21 25.38 25.40 27.03 30.24 32.59 33.84 34.25 34.56 34.43 34.29 33.50 31.45 29.19 28.17 28.07 28.59 28.85 28.69 28.68 29.16 29.35 29.73 30.34 31.22 31.31 31.43 31.43 31.27 30.67
MSLP
1023.77 1023.73 1023.73 1023.73 1023.69 1023.69 1023.69 1023.69 1023.65 1023.65 1023.65 1023.69 1023.69 1023.69 1023.73 1023.73 1023.77 1023.73 1023.69 1023.65 1023.65 1023.65 1023.69 1023.69 1023.65 1023.69 1023.69 1023.73 1023.73 1023.69 1023.61 1023.49 1023.37 1023.25 1023.13 1023.09 1023.05 1023.01 1022.97 1022.93 1022.85 1022.81 1022.77 1022.73 1022.69 1022.57 1022.53 1022.41 1022.29 1022.09 1021.89 1021.81 1021.73 1021.73 1021.77 1021.81 1021.89 1021.85 1021.81 1021.73 1021.69 1021.61 1021.57 1021.57 1021.57 1021.57 1021.61 1021.61 1021.65
1023.77 1023.77 1023.77 1023.77 1023.73 1023.73 1023.73 1023.73 1023.69 1023.69 1023.69 1023.73 1023.77 1023.77 1023.81 1023.81 1023.81 1023.81 1023.81 1023.77 1023.73 1023.73 1023.77 1023.77 1023.77 1023.81 1023.81 1023.81 1023.81 1023.77 1023.69 1023.53 1023.45 1023.37 1023.25 1023.17 1023.13 1023.05 1023.01 1022.97 1022.93 1022.89 1022.81 1022.81 1022.73 1022.69 1022.57 1022.53 1022.41 1022.21 1022.01 1021.89 1021.85 1021.89 1021.93 1021.97 1021.97 1021.97 1021.89 1021.85 1021.77 1021.69 1021.69 1021.69 1021.69 1021.69 1021.69 1021.73 1021.77
1023.81 1023.81 1023.81 1023.77 1023.73 1023.73 1023.73 1023.73 1023.77 1023.77 1023.81 1023.81 1023.81 1023.81 1023.81 1023.81 1023.81 1023.81 1023.81 1023.81 1023.81 1023.85 1023.85 1023.81 1023.85 1023.89 1023.89 1023.93 1023.89 1023.81 1023.69 1023.61 1023.53 1023.41 1023.37 1023.25 1023.17 1023.13 1023.09 1023.05 1023.01 1022.97 1022.89 1022.85 1022.81 1022.73 1022.65 1022.57 1022.45 1022.29 1022.13 1022.05 1022.05 1022.05 1022.09 1022.09 1022.09 1022.05 1022.01 1021.97 1021.85 1021.81 1021.77 1021.77 1021.81 1021.81 1021.81 1021.81 1021.93
1023.81 1023.81 1023.81 1023.77 1023.73 1023.77 1023.77 1023.81 1023.81 1023.81 1023.81 1023.81 1023.81 1023.81 1023.81 1023.81 1023.81 1023.85 1023.85 1023.89 1023.85 1023.85 1023.85 1023.81 1023.89 1023.93 1023.97 1023.97 1023.93 1023.81 1023.73 1023.65 1023.57 1023.53 1023.45 1023.37 1023.25 1023.17 1023.13 1023.13 1023.09 1023.05 1022.97 1022.93 1022.89 1022.81 1022.73 1022.69 1022.53 1022.41 1022.29 1022.25 1022.25 1022.25 1022.25 1022.29 1022.25 1022.17 1022.09 1022.05 1021.97 1021.89 1021.89 1021.85 1021.85 1021.85 1021.89 1021.97 1022.01
1023.81 1023.81 1023.81 1023.81 1023.77 1023.77 1023.81 1023.81 1023.85 1023.85 1023.85 1023.85 1023.85 1023.85 1023.85 1023.85 1023.85 1023.89 1023.89 1023.89 1023.85 1023.85 1023.85 1023.85 1023.93 1023.93 1023.93 1023.93 1023.85 1023.81 1023.77 1023.73 1023.69 1023.65 1023.57 1023.49 1023.37 1023.25 1023.25 1023.17 1023.17 1023.13 1023.09 1023.01 1022.97 1022.89 1022.81 1022.77 1022.65 1022.53 1022.41 1022.41 1022.37 1022.37 1022.41 1022.41 1022.41 1022.33 1022.25 1022.17 1022.09 1022.01 1021.97 1021.97 1021.97 1021.97 1022.01 1022.05 1022.09
1023.73 1023.77 1023.81 1023.81 1023.81 1023.81 1023.85 1023.85 1023.85 1023.89 1023.93 1023.93 1023.93 1023.93 1023.89 1023.85 1023.85 1023.85 1023.85 1023.85 1023.85 1023.85 1023.81 1023.85 1023.81 1023.85 1023.85 1023.85 1023.85 1023.85 1023.85 1023.85 1023.81 1023.77 1023.69 1023.61 1023.49 1023.37 1023.29 1023.25 1023.25 1023.25 1023.21 1023.13 1023.05 1022.97 1022.93 1022.81 1022.69 1022.57 1022.53 1022.53 1022.49 1022.49 1022.53 1022.53 1022.53 1022.45 1022.41 1022.29 1022.17 1022.09 1022.09 1022.09 1022.05 1022.09 1022.09 1022.13 1022.17
1023.73 1023.77 1023.81 1023.81 1023.81 1023.85 1023.89 1023.85 1023.89 1023.93 1023.93 1023.97 1023.97 1023.97 1023.93 1023.89 1023.85 1023.89 1023.89 1023.85 1023.81 1023.81 1023.81 1023.81 1023.81 1023.85 1023.89 1023.89 1023.89 1023.93 1023.93 1023.93 1023.93 1023.85 1023.81 1023.69 1023.57 1023.45 1023.41 1023.37 1023.37 1023.33 1023.29 1023.25 1023.21 1023.09 1023.01 1022.93 1022.77 1022.65 1022.61 1022.57 1022.57 1022.57 1022.61 1022.61 1022.61 1022.53 1022.49 1022.41 1022.25 1022.17 1022.17 1022.17 1022.17 1022.13 1022.09 1022.09 1022.13
1023.77 1023.81 1023.81 1023.81 1023.85 1023.89 1023.89 1023.89 1023.93 1023.93 1023.89 1023.89 1023.85 1023.85 1023.85 1023.85 1023.85 1023.85 1023.85 1023.85 1023.85 1023.85 1023.81 1023.81 1023.85 1023.93 1023.97 1023.97 1023.97 1023.93 1023.93 1023.93 1023.93 1023.89 1023.85 1023.77 1023.69 1023.53 1023.45 1023.41 1023.41 1023.41 1023.37 1023.33 1023.29 1023.25 1023.13 1022.97 1022.81 1022.77 1022.77 1022.77 1022.69 1022.69 1022.69 1022.69 1022.65 1022.57 1022.53 1022.45 1022.37 1022.25 1022.25 1022.25 1022.17 1022.09 1022.05 1022.01 1022.05
1023.73 1023.73 1023.77 1023.81 1023.81 1023.81 1023.85 1023.89 1023.89 1023.89 1023.89 1023.85 1023.81 1023.77 1023.73 1023.77 1023.81 1023.81 1023.85 1023.85 1023.85 1023.85 1023.81 1023.85 1023.89 1023.93 1023.93 1023.97 1023.97 1023.97 1023.97 1023.97 1023.93 1023.85 1023.81 1023.81 1023.69 1023.57 1023.49 1023.45 1023.45 1023.41 1023.41 1023.37 1023.37 1023.29 1023.17 1023.01 1022.89 1022.85 1022.85 1022.85 1022.81 1022.81 1022.77 1022.69 1022.69 1022.61 1022.53 1022.41 1022.41 1022.33 1022.25 1022.25 1022.17 1022.09 1022.01 1022.01 1022.05
1023.61 1023.69 1023.69 1023.77 1023.77 1023.77 1023.81 1023.81 1023.81 1023.81 1023.81 1023.81 1023.73 1023.69 1023.65 1023.69 1023.69 1023.73 1023.77 1023.81 1023.81 1023.85 1023.89 1023.89 1023.89 1023.89 1023.89 1023.89 1023.97 1023.97 1023.93 1023.93 1023.89 1023.81 1023.81 1023.77 1023.69 1023.57 1023.53 1023.45 1023.41 1023.41 1023.41 1023.33 1023.33 1023.29 1023.21 1023.09 1022.97 1022.93 1022.93 1022.89 1022.89 1022.85 1022.81 1022.73 1022.69 1022.61 1022.53 1022.41 1022.37 1022.29 1022.25 1022.21 1022.13 1022.09 1022.05 1022.01 1022.05
1023.53 1023.57 1023.61 1023.69 1023.69 1023.73 1023.77 1023.77 1023.77 1023.77 1023.77 1023.73 1023.69 1023.65 1023.61 1023.65 1023.69 1023.69 1023.69 1023.73 1023.81 1023.81 1023.85 1023.89 1023.85 1023.85 1023.85 1023.85 1023.89 1023.89 1023.89 1023.89 1023.81 1023.77 1023.69 1023.69 1023.61 1023.53 1023.45 1023.41 1023.41 1023.37 1023.37 1023.33 1023.33 1023.25 1023.21 1023.13 1023.05 1022.97 1022.97 1022.93 1022.93 1022.85 1022.81 1022.73 1022.69 1022.57 1022.53 1022.41 1022.37 1022.29 1022.25 1022.17 1022.09 1022.05 1022.01 1022.01 1022.05
1023.49 1023.53 1023.53 1023.61 1023.65 1023.69 1023.73 1023.73 1023.73 1023.69 1023.69 1023.69 1023.65 1023.65 1023.65 1023.65 1023.69 1023.69 1023.69 1023.73 1023.81 1023.81 1023.81 1023.81 1023.81 1023.81 1023.77 1023.81 1023.81 1023.81 1023.81 1023.81 1023.81 1023.73 1023.69 1023.65 1023.57 1023.49 1023.41 1023.37 1023.33 1023.33 1023.33 1023.33 1023.29 1023.25 1023.21 1023.13 1023.09 1023.01 1022.97 1022.97 1022.93 1022.85 1022.81 1022.69 1022.69 1022.61 1022.53 1022.41 1022.37 1022.25 1022.17 1022.13 1022.09 1022.01 1021.97 1022.01 1022.01
1023.49 1023.53 1023.53 1023.53 1023.61 1023.69 1023.69 1023.73 1023.69 1023.65 1023.61 1023.61 1023.61 1023.65 1023.65 1023.65 1023.69 1023.69 1023.69 1023.73 1023.77 1023.77 1023.73 1023.73 1023.77 1023.77 1023.81 1023.77 1023.77 1023.81 1023.77 1023.77 1023.73 1023.69 1023.65 1023.57 1023.49 1023.41 1023.37 1023.29 1023.25 1023.25 1023.25 1023.29 1023.25 1023.25 1023.17 1023.13 1023.09 1023.05 1023.01 1022.97 1022.97 1022.85 1022.81 1022.73 1022.69 1022.57 1022.49 1022.41 1022.29 1022.21 1022.13 1022.09 1022.01 1021.97 1021.97 1021.97 1022.05
1023.45 1023.49 1023.49 1023.53 1023.53 1023.61 1023.69 1023.69 1023.61 1023.57 1023.57 1023.57 1023.57 1023.57 1023.61 1023.65 1023.65 1023.69 1023.69 1023.69 1023.73 1023.73 1023.69 1023.69 1023.73 1023.73 1023.73 1023.73 1023.69 1023.69 1023.69 1023.69 1023.65 1023.61 1023.53 1023.49 1023.41 1023.37 1023.29 1023.25 1023.21 1023.21 1023.21 1023.21 1023.25 1023.21 1023.13 1023.13 1023.09 1023.05 1023.01 1022.97 1022.93 1022.85 1022.81 1022.77 1022.69 1022.61 1022.49 1022.41 1022.25 1022.17 1022.09 1021.97 1021.97 1021.97 1021.97 1022.01 1022.09
1023.33 1023.41 1023.41 1023.45 1023.53 1023.53 1023.57 1023.57 1023.57 1023.57 1023.57 1023.57 1023.57 1023.53 1023.53 1023.57 1023.61 1023.61 1023.65 1023.69 1023.73 1023.73 1023.73 1023.69 1023.69 1023.69 1023.69 1023.69 1023.61 1023.61 1023.57 1023.57 1023.53 1023.53 1023.49 1023.41 1023.37 1023.29 1023.25 1023.17 1023.17 1023.13 1023.13 1023.13 1023.13 1023.13 1023.13 1023.13 1023.09 1023.05 1023.01 1022.97 1022.93 1022.89 1022.81 1022.77 1022.69 1022.61 1022.49 1022.37 1022.25 1022.09 1022.01 1021.97 1021.97 1021.97 1021.97 1022.01 1022.05
1023.21 1023.25 1023.37 1023.41 1023.45 1023.49 1023.49 1023.49 1023.53 1023.53 1023.53 1023.53 1023.53 1023.49 1023.53 1023.53 1023.57 1023.57 1023.61 1023.69 1023.69 1023.69 1023.69 1023.65 1023.65 1023.65 1023.61 1023.57 1023.53 1023.53 1023.49 1023.41 1023.41 1023.41 1023.37 1023.33 1023.25 1023.25 1023.17 1023.13 1023.13 1023.09 1023.09 1023.09 1023.09 1023.13 1023.09 1023.05 1023.05 1023.05 1023.05 1023.01 1022.97 1022.93 1022.85 1022.77 1022.69 1022.53 1022.41 1022.25 1022.13 1022.01 1021.97 1021.89 1021.93 1021.93 1021.97 1021.97 1021.97
1023.09 1023.17 1023.25 1023.33 1023.41 1023.41 1023.41 1023.41 1023.45 1023.49 1023.49 1023.45 1023.45 1023.41 1023.45 1023.45 1023.49 1023.53 1023.53 1023.53 1023.57 1023.61 1023.61 1023.57 1023.57 1023.57 1023.53 1023.49 1023.49 1023.41 1023.37 1023.29 1023.25 1023.25 1023.25 1023.21 1023.17 1023.13 1023.13 1023.09 1023.05 1023.01 1023.01 1023.01 1023.01 1023.01 1023.01 1023.01 1023.01 1023.05 1023.05 1023.05 1022.97 1022.93 1022.81 1022.69 1022.57 1022.45 1022.29 1022.17 1022.05 1021.97 1021.89 1021.85 1021.89 1021.89 1021.93 1021.93 1021.89
1022.97 1023.05 1023.13 1023.21 1023.25 1023.25 1023.29 1023.29 1023.33 1023.37 1023.37 1023.41 1023.41 1023.37 1023.37 1023.41 1023.41 1023.45 1023.49 1023.49 1023.49 1023.53 1023.53 1023.53 1023.53 1023.49 1023.45 1023.41 1023.41 1023.33 1023.29 1023.25 1023.21 1023.17 1023.17 1023.13 1023.13 1023.09 1023.05 1023.01 1022.97 1022.97 1022.97 1022.97 1022.97 1022.97 1022.97 1022.97 1022.97 1023.01 1023.05 1023.05 1022.97 1022.89 1022.77 1022.65 1022.49 1022.33 1022.21 1022.05 1021.97 1021.85 1021.81 1021.81 1021.81 1021.81 1021.81 1021.81 1021.81
1022.85 1022.93 1022.97 1023.01 1023.09 1023.13 1023.13 1023.13 1023.17 1023.21 1023.25 1023.25 1023.25 1023.25 1023.29 1023.33 1023.41 1023.41 1023.45 1023.45 1023.49 1023.49 1023.49 1023.45 1023.41 1023.41 1023.33 1023.33 1023.29 1023.25 1023.21 1023.17 1023.13 1023.13 1023.13 1023.13 1023.09 1023.01 1022.97 1022.93 1022.89 1022.89 1022.89 1022.89 1022.89 1022.93 1022.93 1022.97 1022.97 1022.97 1023.01 1022.97 1022.93 1022.81 1022.69 1022.53 1022.37 1022.21 1022.05 1021.93 1021.81 1021.81 1021.77 1021.73 1021.73 1021.73 1021.77 1021.77 1021.81
1022.73 1022.81 1022.81 1022.85 1022.89 1022.93 1022.97 1022.97 1023.01 1023.05 1023.09 1023.13 1023.13 1023.17 1023.21 1023.25 1023.33 1023.37 1023.41 1023.41 1023.41 1023.41 1023.41 1023.41 1023.33 1023.25 1023.25 1023.21 1023.17 1023.13 1023.09 1023.05 1023.05 1023.05 1023.01 1023.01 1022.97 1022.93 1022.85 1022.81 1022.81 1022.81 1022.81 1022.81 1022.81 1022.85 1022.89 1022.93 1022.93 1022.97 1022.97 1022.89 1022.81 1022.69 1022.53 1022.37 1022.25 1022.09 1021.93 1021.81 1021.77 1021.69 1021.69 1021.65 1021.65 1021.65 1021.69 1021.73 1021.77
1022.61 1022.65 1022.65 1022.69 1022.73 1022.77 1022.81 1022.81 1022.85 1022.93 1022.97 1022.97 1023.05 1023.09 1023.13 1023.17 1023.25 1023.25 1023.25 1023.25 1023.25 1023.25 1023.25 1023.21 1023.17 1023.13 1023.13 1023.09 1023.01 1022.97 1022.97 1022.93 1022.93 1022.93 1022.89 1022.89 1022.81 1022.77 1022.73 1022.73 1022.73 1022.73 1022.69 1022.73 1022.77 1022.81 1022.81 1022.85 1022.89 1022.89 1022.89 1022.81 1022.69 1022.53 1022.41 1022.25 1022.09 1021.97 1021.85 1021.77 1021.69 1021.65 1021.61 1021.53 1021.57 1021.61 1021.65 1021.69 1021.77
1022.41 1022.45 1022.49 1022.53 1022.57 1022.61 1022.65 1022.69 1022.77 1022.81 1022.85 1022.89 1022.97 1022.97 1023.01 1023.09 1023.09 1023.09 1023.13 1023.13 1023.13 1023.13 1023.09 1023.05 1023.01 1022.97 1022.97 1022.93 1022.89 1022.81 1022.81 1022.81 1022.81 1022.81 1022.81 1022.81 1022.73 1022.69 1022.69 1022.69 1022.65 1022.65 1022.65 1022.65 1022.69 1022.69 1022.73 1022.77 1022.81 1022.81 1022.81 1022.69 1022.53 1022.41 1022.25 1022.09 1021.97 1021.85 1021.77 1021.69 1021.65 1021.53 1021.53 1021.49 1021.53 1021.53 1021.61 1021.69 1021.73
1022.21 1022.25 1022.33 1022.41 1022.41 1022.45 1022.49 1022.53 1022.65 1022.69 1022.73 1022.77 1022.81 1022.89 1022.93 1022.93 1022.93 1022.93 1022.93 1022.93 1022.93 1022.89 1022.89 1022.85 1022.85 1022.81 1022.81 1022.81 1022.77 1022.73 1022.73 1022.73 1022.73 1022.77 1022.77 1022.77 1022.69 1022.65 1022.61 1022.57 1022.53 1022.53 1022.53 1022.57 1022.61 1022.61 1022.65 1022.65 1022.69 1022.69 1022.65 1022.53 1022.37 1022.21 1022.05 1021.97 1021.81 1021.73 1021.69 1021.61 1021.53 1021.49 1021.41 1021.41 1021.45 1021.53 1021.61 1021.65 1021.65
1022.05 1022.09 1022.17 1022.21 1022.25 1022.33 1022.41 1022.49 1022.53 1022.57 1022.61 1022.69 1022.73 1022.77 1022.81 1022.77 1022.77 1022.77 1022.73 1022.73 1022.73 1022.69 1022.69 1022.69 1022.69 1022.73 1022.73 1022.73 1022.69 1022.69 1022.69 1022.69 1022.69 1022.69 1022.69 1022.69 1022.65 1022.53 1022.49 1022.41 1022.41 1022.41 1022.45 1022.53 1022.53 1022.49 1022.49 1022.53 1022.61 1022.61 1022.53 1022.37 1022.21 1022.05 1021.97 1021.81 1021.73 1021.69 1021.61 1021.53 1021.45 1021.41 1021.41 1021.41 1021.45 1021.53 1021.53 1021.53 1021.53
1021.85 1021.97 1022.01 1022.09 1022.13 1022.21 1022.29 1022.41 1022.45 1022.49 1022.53 1022.53 1022.57 1022.65 1022.65 1022.61 1022.61 1022.61 1022.61 1022.57 1022.53 1022.53 1022.53 1022.57 1022.57 1022.57 1022.57 1022.61 1022.65 1022.65 1022.61 1022.61 1022.57 1022.57 1022.57 1022.53 1022.49 1022.41 1022.33 1022.33 1022.33 1022.33 1022.37 1022.41 1022.29 1022.25 1022.25 1022.33 1022.41 1022.41 1022.33 1022.17 1022.05 1021.93 1021.81 1021.69 1021.65 1021.57 1021.53 1021.41 1021.33 1021.29 1021.33 1021.37 1021.45 1021.49 1021.49 1021.45 1021.41
1021.69 1021.77 1021.81 1021.93 1022.01 1022.09 1022.21 1022.25 1022.33 1022.37 1022.41 1022.41 1022.45 1022.49 1022.49 1022.45 1022.49 1022.49 1022.45 1022.41 1022.41 1022.41 1022.41 1022.41 1022.41 1022.41 1022.41 1022.45 1022.49 1022.53 1022.53 1022.49 1022.49 1022.45 1022.41 1022.37 1022.33 1022.29 1022.25 1022.25 1022.25 1022.29 1022.25 1022.25 1022.13 1022.09 1022.09 1022.09 1022.09 1022.09 1022.01 1021.93 1021.81 1021.73 1021.69 1021.61 1021.53 1021.49 1021.41 1021.29 1021.25 1021.25 1021.25 1021.33 1021.41 1021.37 1021.37 1021.37 1021.33
1021.49 1021.57 1021.69 1021.77 1021.85 1021.93 1022.01 1022.09 1022.13 1022.21 1022.25 1022.25 1022.29 1022.29 1022.29 1022.33 1022.37 1022.33 1022.29 1022.29 1022.29 1022.29 1022.25 1022.25 1022.25 1022.25 1022.25 1022.25 1022.29 1022.33 1022.37 1022.33 1022.29 1022.25 1022.25 1022.21 1022.21 1022.17 1022.13 1022.17 1022.21 1022.21 1022.13 1022.05 1021.97 1021.93 1021.93 1021.93 1021.85 1021.77 1021.73 1021.69 1021.65 1021.61 1021.53 1021.53 1021.41 1021.37 1021.29 1021.21 1021.17 1021.17 1021.21 1021.25 1021.25 1021.25 1021.25 1021.25 1021.25
1021.25 1021.41 1021.49 1021.61 1021.69 1021.77 1021.81 1021.93 1021.97 1022.05 1022.09 1022.09 1022.09 1022.09 1022.17 1022.17 1022.17 1022.13 1022.13 1022.13 1022.13 1022.13 1022.13 1022.09 1022.09 1022.09 1022.09 1022.09 1022.13 1022.13 1022.17 1022.17 1022.13 1022.09 1022.05 1022.05 1022.01 1022.01 1022.05 1022.09 1022.13 1022.09 1021.97 1021.85 1021.77 1021.73 1021.73 1021.73 1021.69 1021.61 1021.53 1021.53 1021.49 1021.45 1021.45 1021.41 1021.37 1021.29 1021.25 1021.13 1021.13 1021.13 1021.13 1021.13 1021.13 1021.13 1021.13 1021.13 1021.13
1021.01 1021.13 1021.25 1021.41 1021.49 1021.57 1021.65 1021.73 1021.81 1021.81 1021.89 1021.89 1021.97 1021.97 1021.97 1021.97 1022.01 1022.01 1022.01 1022.01 1022.01 1022.01 1021.97 1021.97 1021.97 1021.97 1021.97 1021.97 1021.97 1021.93 1021.93 1021.93 1021.93 1021.89 1021.89 1021.89 1021.85 1021.89 1021.93 1021.93 1021.97 1021.93 1021.81 1021.65 1021.57 1021.53 1021.53 1021.53 1021.53 1021.45 1021.37 1021.29 1021.29 1021.29 1021.29 1021.29 1021.25 1021.21 1021.13 1021.09 1021.05 1021.09 1021.09 1021.05 1021.05 1021.09 1021.09 1021.05 1021.05
1020.81 1020.93 1021.05 1021.17 1021.25 1021.37 1021.45 1021.53 1021.57 1021.65 1021.69 1021.77 1021.81 1021.81 1021.81 1021.85 1021.85 1021.89 1021.89 1021.93 1021.93 1021.93 1021.89 1021.89 1021.85 1021.85 1021.81 1021.77 1021.73 1021.73 1021.73 1021.69 1021.69 1021.69 1021.73 1021.77 1021.77 1021.73 1021.77 1021.81 1021.81 1021.73 1021.65 1021.49 1021.41 1021.37 1021.37 1021.41 1021.41 1021.29 1021.21 1021.17 1021.17 1021.21 1021.21 1021.21 1021.21 1021.13 1021.09 1021.01 1020.97 1021.01 1021.01 1020.97 1020.97 1020.97 1020.97 1020.97 1020.93
1020.53 1020.69 1020.81 1020.93 1021.05 1021.13 1021.21 1021.25 1021.37 1021.45 1021.53 1021.57 1021.61 1021.65 1021.69 1021.69 1021.73 1021.73 1021.73 1021.81 1021.81 1021.77 1021.77 1021.77 1021.73 1021.69 1021.61 1021.57 1021.53 1021.53 1021.49 1021.49 1021.49 1021.53 1021.53 1021.61 1021.61 1021.61 1021.61 1021.65 1021.65 1021.57 1021.49 1021.37 1021.25 1021.21 1021.21 1021.25 1021.21 1021.17 1021.09 1021.01 1021.01 1021.09 1021.13 1021.13 1021.09 1021.05 1020.97 1020.97 1020.93 1020.93 1020.93 1020.89 1020.89 1020.89 1020.81 1020.81 1020.77
1020.33 1020.41 1020.53 1020.69 1020.81 1020.89 1020.97 1021.09 1021.17 1021.25 1021.33 1021.41 1021.41 1021.49 1021.53 1021.53 1021.57 1021.61 1021.61 1021.69 1021.69 1021.69 1021.69 1021.65 1021.57 1021.53 1021.45 1021.41 1021.37 1021.33 1021.33 1021.33 1021.33 1021.37 1021.41 1021.41 1021.41 1021.45 1021.49 1021.49 1021.49 1021.45 1021.37 1021.25 1021.13 1021.09 1021.09 1021.09 1021.09 1021.01 1020.97 1020.93 1020.93 1020.97 1021.01 1021.01 1021.01 1020.97 1020.93 1020.89 1020.81 1020.81 1020.77 1020.77 1020.73 1020.69 1020.69 1020.69 1020.65
1020.09 1020.25 1020.37 1020.45 1020.53 1020.69 1020.81 1020.89 1020.97 1021.09 1021.13 1021.21 1021.25 1021.25 1021.33 1021.37 1021.41 1021.49 1021.53 1021.53 1021.53 1021.49 1021.49 1021.41 1021.41 1021.37 1021.29 1021.29 1021.25 1021.21 1021.21 1021.17 1021.17 1021.13 1021.17 1021.21 1021.25 1021.29 1021.33 1021.33 1021.33 1021.25 1021.17 1021.01 1020.97 1020.93 1020.93 1020.93 1020.93 1020.89 1020.85 1020.81 1020.81 1020.85 1020.89 1020.93 1020.93 1020.89 1020.85 1020.81 1020.73 1020.65 1020.61 1020.53 1020.53 1020.53 1020.53 1020.53 1020.53
1019.93 1020.01 1020.13 1020.25 1020.37 1020.49 1020.57 1020.69 1020.81 1020.89 1020.97 1021.01 1021.09 1021.13 1021.17 1021.21 1021.25 1021.33 1021.33 1021.33 1021.33 1021.29 1021.25 1021.25 1021.17 1021.13 1021.13 1021.13 1021.13 1021.09 1021.05 1021.05 1021.05 1021.05 1021.05 1021.09 1021.13 1021.13 1021.17 1021.17 1021.13 1021.05 1020.97 1020.85 1020.81 1020.77 1020.77 1020.77 1020.77 1020.77 1020.73 1020.69 1020.69 1020.81 1020.81 1020.81 1020.85 1020.81 1020.77 1020.73 1020.57 1020.49 1020.41 1020.41 1020.37 1020.37 1020.41 1020.41 1020.41
1019.73 1019.81 1019.93 1020.01 1020.13 1020.25 1020.41 1020.53 1020.65 1020.73 1020.81 1020.85 1020.89 1020.93 1020.97 1021.05 1021.09 1021.13 1021.13 1021.13 1021.13 1021.13 1021.13 1021.05 1021.01 1020.97 1020.97 1020.97 1020.97 1020.97 1020.97 1020.97 1020.97 1020.97 1020.97 1020.97 1021.01 1021.05 1021.05 1021.01 1020.97 1020.85 1020.77 1020.69 1020.57 1020.57 1020.61 1020.61 1020.65 1020.65 1020.65 1020.65 1020.69 1020.77 1020.81 1020.77 1020.81 1020.73 1020.69 1020.57 1020.45 1020.37 1020.29 1020.25 1020.25 1020.21 1020.25 1020.25 1020.25
1019.49 1019.57 1019.69 1019.81 1019.93 1020.05 1020.21 1020.37 1020.45 1020.53 1020.61 1020.65 1020.69 1020.73 1020.81 1020.85 1020.89 1020.97 1020.97 1020.97 1020.97 1020.97 1020.93 1020.89 1020.89 1020.89 1020.89 1020.85 1020.81 1020.81 1020.81 1020.81 1020.89 1020.89 1020.89 1020.89 1020.97 1020.97 1020.97 1020.89 1020.85 1020.73 1020.61 1020.49 1020.41 1020.41 1020.45 1020.49 1020.53 1020.53 1020.53 1020.61 1020.69 1020.73 1020.69 1020.73 1020.69 1020.65 1020.53 1020.41 1020.33 1020.25 1020.13 1020.09 1020.09 1020.09 1020.09 1020.09 1020.13
1019.25 1019.37 1019.45 1019.61 1019.73 1019.85 1020.01 1020.13 1020.25 1020.33 1020.37 1020.41 1020.45 1020.53 1020.61 1020.69 1020.69 1020.73 1020.77 1020.81 1020.81 1020.81 1020.77 1020.77 1020.77 1020.73 1020.69 1020.69 1020.69 1020.69 1020.69 1020.69 1020.73 1020.81 1020.81 1020.81 1020.81 1020.81 1020.81 1020.81 1020.73 1020.69 1020.53 1020.33 1020.25 1020.25 1020.29 1020.37 1020.41 1020.41 1020.49 1020.53 1020.57 1020.61 1020.65 1020.61 1020.57 1020.45 1020.37 1020.29 1020.25 1020.13 1020.05 1019.97 1019.97 1019.97 1019.97 1019.97 1019.97
1018.97 1019.09 1019.21 1019.41 1019.53 1019.65 1019.77 1019.93 1020.01 1020.09 1020.09 1020.17 1020.25 1020.29 1020.41 1020.49 1020.53 1020.53 1020.53 1020.53 1020.61 1020.61 1020.61 1020.61 1020.61 1020.57 1020.53 1020.53 1020.53 1020.53 1020.53 1020.53 1020.53 1020.61 1020.65 1020.69 1020.65 1020.65 1020.65 1020.61 1020.57 1020.53 1020.41 1020.29 1020.13 1020.09 1020.13 1020.21 1020.25 1020.33 1020.41 1020.49 1020.53 1020.53 1020.53 1020.53 1020.41 1020.33 1020.25 1020.17 1020.09 1020.01 1019.93 1019.89 1019.85 1019.85 1019.85 1019.85 1019.81
1018.73 1018.81 1018.97 1019.13 1019.25 1019.41 1019.53 1019.69 1019.73 1019.81 1019.85 1019.97 1020.05 1020.09 1020.17 1020.25 1020.25 1020.29 1020.29 1020.29 1020.33 1020.41 1020.41 1020.45 1020.45 1020.41 1020.37 1020.37 1020.41 1020.41 1020.41 1020.33 1020.37 1020.41 1020.45 1020.49 1020.45 1020.41 1020.41 1020.45 1020.45 1020.41 1020.33 1020.21 1020.09 1020.01 1020.01 1020.05 1020.13 1020.21 1020.25 1020.37 1020.41 1020.41 1020.41 1020.41 1020.29 1020.25 1020.17 1020.09 1019.97 1019.89 1019.81 1019.77 1019.73 1019.73 1019.73 1019.73 1019.69
1018.49 1018.61 1018.73 1018.85 1018.97 1019.13 1019.29 1019.41 1019.45 1019.53 1019.61 1019.73 1019.81 1019.89 1019.93 1019.97 1020.01 1020.01 1020.05 1020.09 1020.09 1020.17 1020.21 1020.25 1020.25 1020.25 1020.21 1020.21 1020.25 1020.25 1020.25 1020.21 1020.21 1020.21 1020.25 1020.25 1020.25 1020.21 1020.17 1020.25 1020.25 1020.25 1020.21 1020.09 1020.01 1019.97 1019.93 1019.97 1019.97 1020.05 1020.09 1020.25 1020.25 1020.29 1020.25 1020.25 1020.17 1020.09 1020.05 1019.97 1019.89 1019.77 1019.69 1019.65 1019.65 1019.65 1019.61 1019.61 1019.57
1018.29 1018.41 1018.53 1018.65 1018.73 1018.85 1019.01 1019.13 1019.17 1019.29 1019.41 1019.45 1019.53 1019.57 1019.65 1019.69 1019.81 1019.81 1019.85 1019.93 1019.97 1019.97 1020.01 1020.09 1020.09 1020.09 1020.09 1020.05 1020.05 1020.09 1020.09 1020.09 1020.09 1020.05 1020.01 1020.01 1020.01 1019.97 1019.97 1020.01 1020.09 1020.09 1020.09 1020.05 1019.97 1019.89 1019.85 1019.81 1019.85 1019.89 1019.97 1020.09 1020.13 1020.13 1020.13 1020.09 1020.09 1020.01 1019.97 1019.85 1019.77 1019.69 1019.61 1019.53 1019.53 1019.53 1019.53 1019.53 1019.49
Wind_Speed
1 1 1 1 1 1 1 1 1 1 1 1 1 2 2 2 2 2 2 2 2 2 2 2 2 3 3 5 5 6 6 6 6 5 5 4 3 2 2 3 3 3 3 3 4 4 4 5 5 4 3 3 2 2 3 4 4 4 4 4 3 3 3 4 5 5 5 6 5
0 1 1 1 1 1 1 1 1 1 1 1 1 1 1 1 2 2 2 2 2 2 2 2 2 3 4 5 5 5 5 5 5 5 5 4 3 3 3 3 3 3 3 3 3 3 4 5 4 4 3 3 3 3 3 4 4 4 4 4 3 3 3 3 4 4 5 5 5
0 0 1 1 1 1 1 0 1 1 1 1 1 1 1 1 1 2 2 2 2 2 2 2 2 3 3 4 4 5 5 5 5 5 5 4 4 4 3 3 4 4 4 4 3 3 4 4 4 4 3 3 3 3 4 4 4 4 4 4 3 3 3 3 4 4 4 4 4
1 1 1 2 1 0 0 1 1 1 1 1 1 1 1 1 1 1 1 2 2 2 1 1 1 2 2 3 4 4 5 5 5 5 5 5 5 4 4 3 4 4 4 4 4 4 4 4 3 3 3 3 3 3 4 4 4 4 3 3 3 2 2 3 3 3 3 3 3
2 1 1 1 1 1 1 1 1 1 1 2 2 1 1 1 1 1 1 1 1 2 2 1 1 1 1 2 4 4 5 5 6 6 5 6 5 4 4 4 4 4 4 5 5 4 4 4 3 2 2 3 3 3 3 4 4 3 3 3 3 2 2 3 3 3 3 3 2
1 1 1 1 1 1 1 1 1 1 1 1 2 2 2 1 1 1 1 1 2 2 2 2 1 1 2 3 3 4 4 5 5 5 5 6 5 5 5 5 4 4 4 5 5 5 4 4 3 2 2 2 2 3 4 4 4 3 3 3 3 2 2 3 2 2 2 2 2
1 1 1 1 1 1 1 1 1 1 1 1 2 2 2 2 1 1 2 2 2 2 2 2 2 2 3 3 4 4 4 4 4 5 5 5 5 5 5 4 4 4 4 5 5 5 4 4 3 2 2 3 2 3 4 4 3 3 3 3 2 2 2 2 2 2 2 2 2
2 2 2 2 2 2 2 2 2 2 2 2 3 3 3 2 2 2 2 2 2 2 1 2 2 3 3 3 3 4 4 5 4 4 4 5 5 5 5 4 4 4 4 4 5 5 5 4 3 2 2 2 2 3 3 3 3 3 2 3 2 2 2 2 2 2 2 2 2
3 3 3 3 3 3 3 3 3 3 3 3 3 3 3 2 2 2 2 2 2 1 1 1 2 3 3 4 4 4 4 4 4 4 4 5 5 5 4 4 4 4 4 4 4 4 4 4 3 2 2 2 2 2 2 2 2 2 2 2 2 2 2 2 2 2 2 2 2
3 3 3 3 3 3 3 3 3 3 3 4 4 3 3 2 2 2 2 2 1 1 1 1 2 3 3 4 3 3 3 4 4 4 4 4 5 5 4 3 3 3 3 3 3 4 4 3 3 2 2 2 2 2 2 2 2 2 2 2 2 2 2 2 3 3 2 1 1
2 3 3 3 3 3 3 3 3 3 4 4 4 3 2 2 2 2 2 1 1 1 1 2 2 3 3 3 3 3 3 4 4 4 4 4 5 5 4 3 3 3 3 3 3 3 3 3 3 3 3 2 2 2 2 3 3 2 2 2 2 2 2 3 3 2 1 1 1
2 3 2 2 3 3 3 3 3 3 4 4 3 2 2 2 2 2 2 1 1 2 2 2 2 3 3 3 3 3 4 4 4 4 4 4 5 5 4 3 3 3 3 3 3 3 3 3 3 3 3 3 2 2 2 3 3 3 3 4 3 3 2 3 3 2 1 1 1
3 3 3 2 3 3 3 3 4 4 3 3 2 2 2 2 2 2 2 1 2 2 2 2 3 3 3 3 3 3 3 4 4 4 5 5 5 5 4 3 3 3 2 2 2 3 3 3 3 3 3 3 3 3 3 4 4 4 4 4 4 3 3 3 2 1 1 1 2
4 4 3 3 3 3 4 4 4 4 3 3 3 3 2 3 2 2 1 1 2 2 2 2 3 3 3 4 4 4 4 4 4 5 5 5 4 4 4 3 3 3 2 2 2 3 3 3 3 4 4 4 4 4 4 4 4 5 5 5 4 4 3 3 2 1 1 2 2
4 4 4 3 3 4 4 5 4 3 3 3 3 3 2 2 1 1 1 1 2 2 2 2 3 4 4 4 4 4 4 5 5 4 4 5 5 4 4 4 3 3 2 2 2 3 3 3 4 4 4 4 5 5 5 5 5 5 5 5 5 4 4 3 1 1 1 2 2
5 5 4 4 5 5 5 5 3 3 3 3 3 2 2 1 1 1 1 2 2 2 3 3 3 3 4 4 5 5 5 5 5 4 4 4 4 4 4 4 3 3 2 2 2 3 3 3 3 4 4 5 5 5 5 6 6 6 6 6 5 4 3 2 1 1 1 2 2
5 5 5 5 5 6 6 5 4 3 3 3 2 2 1 1 1 1 2 3 3 3 3 4 4 4 4 4 4 4 4 4 4 4 4 4 4 4 4 4 3 3 2 2 3 3 4 3 3 3 4 6 6 6 7 7 7 7 7 6 5 4 2 2 1 1 2 2 3
5 5 6 6 6 7 7 6 5 4 3 3 2 2 1 1 1 2 3 3 3 3 4 5 4 4 4 4 4 4 3 3 3 4 4 4 4 4 4 4 3 3 3 3 3 3 4 4 4 4 5 6 6 7 7 8 7 7 7 6 5 3 2 1 2 2 2 2 2
5 5 6 7 7 7 7 7 6 5 5 4 3 3 3 3 3 3 3 4 4 4 5 5 5 5 5 5 5 4 4 4 4 4 4 4 4 4 4 4 4 3 3 3 3 4 4 4 4 5 5 6 7 7 8 8 8 7 7 6 4 2 2 2 2 1 1 1 1
5 5 6 7 7 7 7 7 6 6 5 4 4 4 4 4 4 5 5 5 5 5 5 5 5 5 5 5 5 5 5 4 4 5 5 5 4 4 4 4 4 4 3 3 4 4 4 4 5 6 6 7 8 8 8 8 7 7 6 4 3 2 2 2 2 1 0 1 2
5 5 6 6 6 6 6 6 6 6 5 5 5 5 5 5 6 6 6 6 6 6 6 6 5 5 5 5 5 5 4 4 4 4 4 4 4 4 4 4 4 4 4 4 4 4 5 5 5 6 7 8 8 9 8 7 6 5 4 3 3 3 2 2 1 1 1 2 2
5 5 5 5 5 5 5 5 5 5 6 6 6 6 6 6 6 6 6 6 6 6 5 6 5 5 5 5 5 5 4 3 3 3 3 3 4 4 4 4 4 4 4 4 5 5 6 6 6 7 7 8 9 8 8 7 6 5 4 3 3 3 2 1 1 1 1 2 2
5 5 5 5 5 5 5 4 4 5 5 6 6 6 6 6 6 6 6 6 6 6 6 5 5 5 4 4 4 4 3 3 3 3 4 4 4 5 5 4 4 4 4 5 5 6 6 5 6 6 7 8 8 8 7 6 5 4 4 4 3 2 1 1 1 1 1 2 2
5 5 4 4 4 5 5 4 4 4 5 6 6 7 7 7 6 6 6 6 6 6 5 4 4 4 4 4 4 4 4 4 4 5 5 5 5 5 5 4 4 4 5 5 6 7 6 5 5 5 7 7 7 7 6 5 4 4 4 4 3 2 0 1 1 1 2 3 3
6 5 5 5 5 5 5 5 5 5 6 6 7 7 7 7 7 6 6 6 6 6 5 5 5 5 4 4 4 4 4 5 5 6 6 6 5 5 4 4 4 4 4 6 9 10 10 8 6 6 6 7 6 6 5 4 4 4 4 4 3 2 0 1 2 2 3 3 3
6 6 6 6 5 5 6 6 6 6 6 7 6 7 7 7 6 6 6 6 6 6 5 5 5 5 5 5 5 5 5 5 5 6 6 6 6 5 5 4 4 4 5 8 11 12 11 11 11 9 7 5 5 4 4 3 4 4 4 4 3 2 1 1 2 3 3 3 3
7 7 7 6 6 7 7 7 6 6 6 7 7 7 7 6 5 5 6 6 6 5 5 5 6 6 6 5 5 6 6 5 5 6 6 6 6 5 5 4 4 5 6 10 12 12 12 12 12 11 9 5 4 3 3 3 4 4 4 4 3 2 2 2 3 3 3 3 3
7 7 7 7 7 7 7 6 6 6 7 7 7 7 6 6 6 6 6 5 6 5 5 5 5 5 4 4 5 6 6 6 6 6 6 6 6 6 6 5 5 6 8 12 13 13 12 12 11 11 9 7 4 3 3 3 4 4 4 3 2 2 2 2 2 3 3 3 3
8 8 8 8 8 7 7 7 7 7 7 6 6 6 6 6 6 6 6 5 5 5 5 4 4 4 4 4 5 6 7 7 6 6 5 6 6 7 6 5 6 7 10 13 13 12 11 11 11 10 10 8 4 3 2 2 3 3 3 3 2 2 2 2 3 3 3 3 4
8 8 8 8 8 7 7 7 7 7 6 6 6 6 7 7 7 7 6 5 5 5 4 4 4 4 5 6 6 6 6 6 5 5 5 6 6 6 7 6 6 8 10 13 13 12 11 10 10 10 9 8 6 4 2 2 3 3 3 3 2 2 3 3 3 3 3 3 4
8 8 8 8 8 8 8 7 7 7 6 6 7 7 7 7 7 7 6 5 5 5 5 5 6 6 6 6 5 5 5 4 4 5 5 6 7 7 7 7 7 8 10 13 12 11 10 10 10 9 9 8 6 4 2 2 3 3 3 3 3 3 3 3 4 4 4 4 4
8 8 8 8 8 8 7 7 7 7 7 7 7 7 7 7 7 6 5 5 5 5 6 6 7 6 5 5 4 4 4 4 5 5 6 6 7 6 6 7 7 8 10 13 12 11 10 9 9 9 9 8 6 4 3 3 3 3 4 4 4 5 5 4 4 4 4 4 4
9 9 9 8 8 8 7 7 7 7 7 7 7 7 7 7 6 5 4 4 5 5 6 6 6 6 5 5 4 4 4 5 6 6 6 6 6 6 6 6 6 7 10 12 12 11 10 9 9 9 9 8 6 4 3 3 3 3 4 4 5 5 5 5 4 4 4 3 3
9 9 9 9 8 8 7 7 7 7 7 7 7 7 7 7 7 6 5 5 5 5 5 5 5 5 5 5 4 4 5 5 5 5 5 5 5 5 5 5 4 7 10 12 11 10 9 9 9 8 8 8 5 4 3 3 3 4 4 5 5 5 5 5 4 4 3 3 3
9 9 9 9 8 8 7 7 7 7 8 8 8 8 8 7 7 6 6 6 6 5 5 4 4 4 4 4 4 5 5 5 4 4 4 4 4 4 4 4 4 7 10 12 11 10 9 9 9 8 8 7 4 3 2 3 3 4 5 5 5 5 5 4 4 4 3 3 3
10 10 10 9 8 8 8 8 8 8 9 9 9 9 8 7 6 6 6 6 6 5 4 4 4 4 4 4 4 4 5 4 4 4 4 4 4 4 4 4 4 7 10 11 11 10 9 9 9 8 8 5 3 2 2 3 3 4 5 5 5 5 5 4 4 3 3 3 3
10 10 10 9 9 9 8 8 8 9 10 10 10 9 8 7 6 6 6 6 6 5 5 4 4 4 4 5 5 5 5 5 5 5 5 6 5 5 5 4 4 6 9 11 10 10 9 9 9 8 7 4 2 2 3 3 3 4 4 5 5 5 4 4 3 3 3 3 4
11 11 10 10 10 9 9 9 9 10 10 10 9 8 7 7 6 6 6 7 6 5 5 4 5 5 5 5 5 5 6 6 6 6 6 6 6 6 6 5 5 6 7 10 10 10 9 9 9 8 7 3 2 2 3 3 3 3 4 4 4 4 4 3 3 3 3 4 5
11 11 11 11 10 10 10 10 10 11 10 9 8 7 7 6 6 6 6 6 5 5 5 5 5 5 5 5 5 5 5 6 6 6 6 6 6 7 7 6 5 5 6 9 10 10 10 9 9 9 8 5 3 3 3 3 3 3 4 4 4 4 4 3 3 3 3 4 7
11 11 11 11 11 11 11 11 11 10 10 8 8 8 7 6 6 6 5 5 5 5 5 5 5 5 5 6 5 5 5 5 5 5 6 6 7 8 8 6 5 5 6 9 10 11 11 10 10 10 9 5 4 3 3 3 3 3 4 4 4 3 3 3 3 3 3 3 5
10 10 11 11 11 11 11 11 11 10 9 8 8 8 7 6 6 6 5 5 5 5 4 4 5 5 5 6 5 5 5 5 5 5 5 6 7 8 8 6 6 5 6 7 10 12 12 11 11 11 9 6 4 3 3 3 3 3 4 4 4 3 3 3 3 2 2 3 3
Wind_Direction
313 354 14 360 346 338 332 327 333 342 354 358 360 360 356 350 331 314 307 316 345 1 2 351 1 10 11 3 350 338 327 322 327 332 338 344 349 351 347 341 345 354 359 357 353 349 345 341 333 323 316 322 350 25 46 46 27 12 360 353 348 350 1 21 30 33 37 41 36
306 5 360 295 274 270 276 287 313 342 360 360 357 354 349 335 311 305 310 337 4 8 360 345 2 12 9 356 341 327 319 319 327 332 335 337 338 341 345 347 351 356 1 358 355 353 348 341 331 323 320 335 1 26 39 36 23 11 1 352 349 353 7 27 32 35 39 43 36
321 315 274 254 235 231 238 278 351 357 349 322 315 319 322 303 298 305 325 354 4 360 345 334 5 13 6 346 325 314 312 320 330 334 334 333 335 339 347 354 358 360 360 357 354 351 348 342 328 324 329 348 7 27 35 28 18 10 360 350 346 355 12 31 32 34 38 44 38
225 260 266 270 267 278 11 22 360 329 311 306 315 318 304 286 300 318 336 348 345 333 324 329 7 12 355 324 306 307 316 333 338 338 335 332 332 337 346 360 4 2 358 354 349 348 346 341 327 327 339 355 11 28 36 26 15 8 359 346 343 354 14 32 35 36 38 43 40
193 217 256 290 322 349 10 25 346 328 327 343 339 330 315 297 302 315 321 317 309 306 307 318 347 346 324 303 306 318 332 344 344 341 335 329 328 333 347 4 8 3 356 351 345 342 340 338 324 328 347 360 15 34 39 28 17 9 359 344 338 351 17 31 34 36 39 40 38
189 206 231 276 317 335 344 349 331 328 332 336 316 302 293 284 286 289 289 288 294 295 298 305 320 327 324 316 323 334 343 347 343 336 329 324 324 335 350 2 4 1 355 348 341 338 335 332 320 329 354 4 19 36 40 31 19 8 355 336 330 350 19 30 28 29 33 35 33
244 242 242 251 268 283 292 288 289 286 277 263 258 256 255 258 268 278 283 288 288 291 296 319 343 346 340 334 334 334 336 337 332 327 324 321 325 334 345 355 357 355 351 345 337 334 330 321 314 337 8 10 16 30 35 28 18 5 347 327 325 351 21 23 13 6 8 12 16
238 242 240 240 245 252 256 258 258 257 251 240 238 238 239 242 255 274 288 295 292 299 321 349 347 339 331 330 327 323 321 319 317 317 317 317 319 324 332 341 342 342 340 339 332 328 324 316 319 353 20 9 7 16 21 11 7 358 340 320 324 352 14 5 340 331 334 357 17
210 222 225 228 233 235 238 241 246 251 254 251 245 238 231 225 227 240 263 273 282 308 345 356 327 308 302 304 307 308 308 306 303 304 306 307 307 309 314 324 325 326 328 332 326 323 320 317 331 360 20 8 357 357 353 340 336 332 327 316 331 347 351 333 312 310 321 360 26
202 208 214 220 230 235 238 240 245 251 257 260 258 254 248 240 228 226 231 241 261 299 324 300 282 280 283 287 292 295 294 291 290 291 292 293 293 296 300 310 314 317 320 327 324 320 319 320 334 349 356 347 336 328 319 311 315 316 314 312 322 324 317 304 298 304 319 352 18
217 214 212 215 231 242 249 254 252 251 252 256 261 267 271 273 263 249 241 239 244 252 250 246 254 265 274 282 286 285 284 283 284 284 284 283 286 288 291 295 301 306 311 319 319 317 316 316 323 327 327 322 316 306 297 295 299 300 297 291 288 286 285 286 287 292 306 344 13
244 235 226 218 230 242 254 261 258 253 249 249 252 257 265 268 262 259 256 252 246 243 243 248 265 275 278 279 276 275 276 277 281 282 283 280 281 283 286 287 291 296 304 312 315 311 306 304 308 314 316 310 301 291 284 285 286 285 283 277 273 271 272 277 279 281 297 13 21
242 244 240 228 229 239 249 256 258 257 254 250 245 240 237 240 245 251 255 260 254 255 258 269 274 275 272 267 264 263 264 268 272 277 279 280 280 282 284 286 288 293 298 307 307 304 300 300 304 305 302 295 288 286 284 285 282 279 276 273 271 270 269 270 272 282 335 26 15
226 234 237 233 229 234 242 248 253 256 257 254 244 233 227 226 231 235 244 262 268 270 270 270 267 264 261 259 259 258 259 260 263 268 273 277 278 281 284 287 290 292 295 299 300 298 298 300 303 302 299 295 292 291 289 286 280 276 272 271 270 268 267 264 267 298 5 14 352
211 221 228 232 229 232 236 242 247 250 253 252 244 234 221 218 218 221 239 265 273 276 273 266 262 261 262 262 262 261 260 257 258 261 267 273 277 282 285 287 290 291 292 294 295 294 293 295 299 302 301 297 293 290 285 279 273 269 266 265 265 264 262 260 275 335 360 349 316
203 211 220 227 230 232 235 237 239 242 243 246 243 234 219 206 201 211 230 245 256 260 260 259 258 258 260 262 261 258 255 252 251 252 256 264 271 278 283 287 287 287 288 291 290 288 286 286 291 293 293 289 285 281 275 269 265 264 263 261 260 259 260 270 301 329 323 302 285
205 209 214 221 227 230 232 232 232 233 236 240 242 236 222 204 203 222 232 238 242 246 252 254 255 255 256 258 258 258 257 255 253 253 256 262 269 275 280 282 282 282 284 286 286 284 281 278 277 276 276 276 274 271 267 263 262 261 260 258 255 255 260 291 305 302 286 276 276
207 208 212 217 223 227 229 229 229 230 232 236 239 240 238 236 244 249 251 252 250 251 252 255 255 254 254 255 257 259 262 264 266 268 268 271 273 275 276 276 277 278 279 279 278 277 275 274 270 266 266 266 266 265 263 261 261 260 258 255 250 248 255 284 281 274 267 267 282
207 208 211 216 220 224 226 228 229 229 231 234 238 243 246 249 250 253 255 257 256 255 255 256 255 254 253 252 254 255 255 256 259 263 265 267 266 268 269 272 273 274 271 267 268 268 269 269 267 265 263 262 262 261 260 259 259 259 258 255 250 245 244 248 247 246 248 264 326
209 209 210 213 217 220 223 224 225 226 229 232 234 237 239 240 242 243 245 246 247 249 249 250 250 250 249 248 250 251 251 247 246 248 250 252 253 256 261 267 271 271 268 261 261 261 262 262 262 261 261 260 260 260 259 258 258 259 259 260 256 248 240 230 223 215 202 33 9
211 210 210 210 212 214 216 219 221 223 225 229 230 232 233 233 234 235 237 239 241 242 243 243 243 244 245 245 247 248 246 242 241 243 245 247 248 252 258 264 268 268 268 264 258 256 254 252 253 255 256 258 258 259 259 259 259 260 262 267 261 250 236 209 180 132 57 24 360
212 211 210 209 210 210 210 211 215 218 222 225 227 229 230 231 230 229 230 234 237 239 239 241 243 243 246 247 248 248 246 243 247 254 260 263 263 262 262 261 261 263 264 263 257 252 247 244 246 250 253 256 257 259 260 261 261 263 264 267 262 253 231 173 118 71 26 354 324
210 209 209 209 209 209 208 207 207 212 217 222 225 228 229 230 228 227 227 229 233 236 238 241 246 251 257 263 265 264 261 258 258 261 264 265 264 261 257 251 249 251 254 258 254 248 241 238 243 248 253 256 258 260 261 263 265 267 268 268 261 250 216 111 68 28 345 305 284
206 207 206 205 206 206 206 205 205 208 214 219 223 226 227 229 228 226 226 226 229 232 237 241 246 252 261 271 276 275 268 261 257 255 254 253 253 252 250 245 242 244 248 252 247 240 233 228 236 246 253 256 257 258 260 262 268 272 273 270 263 252 210 66 19 335 295 275 267
203 204 203 202 202 203 203 204 206 209 213 218 221 224 226 227 227 226 226 226 228 230 234 239 241 243 246 251 257 259 258 254 253 251 250 250 250 250 250 249 246 246 247 249 247 242 237 230 230 235 242 249 253 256 259 261 268 273 274 271 267 265 283 345 313 288 274 267 267
201 201 201 200 199 200 202 205 207 210 213 216 220 223 225 225 225 224 225 227 228 229 231 232 236 237 236 235 237 242 245 247 246 248 248 250 250 251 251 253 251 249 247 246 245 243 241 239 239 239 240 243 247 253 259 265 269 270 271 271 270 274 292 306 282 271 265 268 278
199 200 200 198 198 200 203 205 207 209 212 215 220 222 224 223 220 221 224 227 228 228 228 227 232 235 236 233 231 234 236 238 239 241 243 244 244 244 245 247 247 247 245 243 242 241 240 242 245 248 249 248 247 252 260 270 270 270 271 272 269 268 270 275 269 267 270 283 289
198 197 197 196 199 202 204 205 207 210 213 214 217 220 222 221 222 223 224 225 227 228 230 231 229 229 229 228 227 227 228 228 230 233 236 239 239 239 239 240 241 245 246 244 241 239 238 241 247 252 255 256 253 252 257 261 264 267 268 269 264 260 260 266 270 277 285 293 291
196 195 194 195 200 203 205 205 208 211 212 212 215 217 219 221 223 225 225 225 226 227 229 231 224 219 216 217 219 220 220 221 221 223 226 232 236 239 239 237 239 246 249 248 244 240 239 242 247 253 258 260 259 254 250 252 259 264 265 264 260 260 266 275 280 286 288 290 289
193 192 193 195 199 203 205 206 208 209 210 211 213 216 219 222 224 225 226 225 225 226 227 228 224 220 217 216 216 216 216 217 214 214 216 220 226 231 235 235 237 245 251 251 247 244 241 243 249 254 259 263 263 259 252 253 261 265 266 265 262 263 267 270 274 276 278 279 282
192 192 192 195 199 203 205 206 206 206 206 209 212 216 219 222 224 225 224 223 225 226 228 228 228 225 222 218 216 215 215 216 213 212 213 216 221 226 229 233 235 244 250 252 250 246 243 245 251 256 261 264 264 259 250 250 258 263 267 267 265 263 261 261 260 261 264 269 276
192 192 193 196 201 203 204 204 204 204 205 207 210 213 217 220 222 223 223 222 224 225 226 227 227 227 226 224 220 219 219 219 217 215 213 212 217 221 226 231 234 241 248 251 249 246 244 245 252 258 263 266 265 260 251 250 257 262 264 263 259 256 253 249 247 249 253 262 276
193 193 194 197 201 203 203 202 202 203 205 208 210 212 214 218 220 222 223 225 225 225 225 225 225 225 225 225 224 226 226 224 221 218 216 213 214 218 225 230 234 241 246 249 248 246 244 246 252 258 263 267 266 263 257 257 260 261 258 253 248 246 245 243 242 242 247 258 274
195 195 196 199 200 201 201 201 201 202 205 210 212 213 214 218 220 223 225 226 228 227 226 224 223 222 221 220 220 223 226 227 222 218 214 211 214 220 226 231 236 243 246 249 247 245 244 246 251 257 262 266 267 265 262 262 262 259 256 252 249 248 246 245 243 241 241 248 262
196 196 198 200 200 199 199 199 200 202 206 212 214 216 216 217 219 220 223 227 230 231 231 229 226 224 223 222 220 221 223 225 223 218 214 212 218 227 235 240 245 250 251 250 247 244 243 244 249 255 261 266 266 261 256 255 258 257 258 259 259 259 257 250 245 240 238 243 256
198 197 198 199 199 198 198 198 199 203 208 212 215 216 217 217 217 218 221 224 228 229 230 228 226 225 225 226 224 222 220 220 219 219 216 214 218 226 237 243 252 257 257 255 249 244 241 242 246 252 258 263 260 251 245 248 252 255 258 263 265 266 263 256 250 248 249 256 263
200 198 197 198 198 198 198 198 200 204 209 212 214 214 214 215 216 217 218 219 222 224 224 222 221 223 223 223 223 220 217 213 213 214 215 214 214 218 227 237 248 258 261 260 253 246 241 240 244 248 253 258 253 247 246 247 252 256 261 266 266 266 264 260 256 258 262 268 272
200 198 197 197 198 198 198 198 202 205 209 211 211 211 210 211 213 216 217 216 217 217 218 218 218 220 221 220 220 219 216 211 208 209 211 212 211 212 217 227 238 251 260 262 257 250 244 240 242 245 245 241 237 239 243 248 253 258 261 264 264 262 261 260 261 264 268 272 281
198 197 196 197 198 199 199 200 204 206 207 208 209 209 208 208 211 214 214 214 212 211 211 213 216 219 220 219 218 218 216 213 209 208 209 211 210 211 213 220 229 242 255 260 258 253 248 243 243 244 243 239 233 233 238 246 251 255 259 262 262 261 259 257 260 264 267 271 287
197 196 196 197 198 198 199 201 204 205 205 205 206 206 207 207 210 212 213 212 209 207 206 210 216 221 222 221 218 217 217 217 214 212 212 213 216 218 219 220 224 235 247 256 257 256 252 246 244 243 242 237 229 228 236 247 254 258 261 263 263 262 261 258 258 260 265 269 287
196 195 196 198 198 198 199 202 203 203 203 202 203 204 205 205 207 209 209 209 206 204 204 209 217 223 227 226 221 217 216 220 221 220 218 218 222 224 225 221 220 225 238 249 254 255 254 249 245 243 240 234 226 223 230 241 251 257 261 265 268 269 269 268 264 263 264 272 283